Location: Newark
(34.7229°N, 135.2511°E)
Time: 14:20:50
(UTC+00:00)

Envisat - Visible Passes

Search period start: 23 August 2019 00:00
Search period end: 02 September 2019 00:00
Orbit: 764 x 766 km, 98.1° (Epoch: 22 August)

Date Brightness Start Highest point End Pass type
(mag) Time Alt. Az. Time Alt. Az. Time Alt. Az.
23 Aug 4.9 10:00:24 10° SSW 10:04:56 33° W 10:09:30 10° NNW visible
25 Aug 5.8 10:27:12 10° SW 10:30:37 18° W 10:34:02 10° NW visible
28 Aug 5.5 10:15:17 10° SSW 10:19:17 23° W 10:23:18 10° NW visible
30 Aug 6.1 10:42:59 10° WSW 10:45:01 12° W 10:47:02 10° WNW visible
31 Aug 5.1 10:03:34 10° SSW 10:07:58 30° W 10:12:24 10° NW visible
